Date String (YYYY-MM-DD hh:mm:ss) UTC,Instrument flags,Ambient pressure (hPa),Sample flow (lpm),Bypass flow (lpm),Sample temperature (°C),Ambient temperature (°C),ASC tube jacket temperature (°C),LED temperature (°C),Box temperature (°C),Sample RH (%),Span deviation,Mass concentration (μg/m³),Mass concentration (μg/m³),Mass concentration (μg/m³)
DateTimeUTC,F1_M11,P_M11,Q1_M11,Q2_M11,T1_M11,T2_M11,T3_M11,T4_M11,T5_M11,U1_M11,ZSPAN_M11,X0_M11,X2_M11,X1_M11
2022-07-16 13:00:00,,0830.2,4.99,0.00,31.3,28.6,00.0,39.4,32.2,34.1,0000.0,0010.30,0006.07,0005.33
2022-07-16 13:01:00,,0830.2,5.00,0.00,31.3,28.7,00.0,39.4,32.2,33.6,0000.0,0010.35,0006.06,0005.32
2022-07-16 13:02:00,,0830.2,5.00,0.00,31.3,28.8,00.0,39.5,32.2,33.6,0000.0,0010.39,0006.06,0005.31
2022-07-16 13:03:00,,0830.2,5.01,0.00,31.3,28.9,00.0,39.5,32.3,33.6,0000.0,0010.55,0006.10,0005.30
2022-07-16 13:04:00,,0830.2,5.00,0.00,31.3,28.9,00.0,39.5,32.3,33.9,0000.0,0010.78,0006.12,0005.30
2022-07-16 13:05:00,,0830.2,5.00,0.00,31.3,29.0,00.0,39.6,32.3,34.1,0000.0,0011.80,0006.13,0005.32
2022-07-16 13:06:00,,0830.2,5.00,0.00,31.2,29.1,00.0,39.6,32.4,33.8,0000.0,0012.55,0006.17,0005.32
2022-07-16 13:07:00,,0830.2,5.00,0.00,31.2,29.1,00.0,39.6,32.4,33.1,0000.0,0012.41,0006.15,0005.31
2022-07-16 13:08:00,,0830.2,5.00,0.00,31.2,28.9,00.0,39.6,32.4,32.9,0000.0,0012.06,0006.10,0005.28
2022-07-16 13:09:00,,0830.1,4.99,0.00,31.2,28.2,00.0,39.5,32.3,32.9,0000.0,0012.13,0006.11,0005.27
2022-07-16 13:10:00,,0830.1,5.01,0.00,31.2,27.6,00.0,39.5,32.2,33.4,0000.0,0012.40,0006.11,0005.27
2022-07-16 13:11:00,,0830.2,5.00,0.00,31.1,27.4,00.0,39.5,32.0,33.4,0000.0,0012.95,0006.11,0005.26
2022-07-16 13:12:00,,0830.1,4.98,0.00,30.9,27.5,00.0,39.5,31.9,34.1,0000.0,0013.08,0006.11,0005.26
2022-07-16 13:13:00,,0830.2,5.00,0.00,30.8,27.6,00.0,39.4,31.9,34.3,0000.0,0012.85,0006.04,0005.23
2022-07-16 13:14:00,,0830.1,4.99,0.00,30.7,27.7,00.0,39.4,31.9,34.8,0000.0,0012.67,0005.98,0005.21
2022-07-16 13:15:00,,0830.1,5.00,0.00,30.7,27.9,00.0,39.4,31.9,35.4,0000.0,0012.61,0005.91,0005.17
2022-07-16 13:16:00,,0830.2,5.00,0.00,30.9,28.1,00.0,39.3,32.0,34.6,0000.0,0012.21,0005.83,0005.12
2022-07-16 13:17:00,,0830.3,5.01,0.00,31.0,28.2,00.0,39.3,32.1,34.0,0000.0,0011.36,0005.74,0005.07
2022-07-16 13:18:00,,0830.3,5.00,0.00,31.1,28.3,00.0,39.4,32.1,33.3,0000.0,0011.57,0005.76,0005.05
2022-07-16 13:19:00,,0830.3,5.00,0.00,31.1,28.4,00.0,39.4,32.1,33.2,0000.0,0011.79,0005.81,0005.03
2022-07-16 13:20:00,,0830.3,5.00,0.00,31.1,28.6,00.0,39.4,32.1,34.7,0000.0,0011.77,0005.80,0005.02
2022-07-16 13:21:00,,0830.2,4.99,0.00,31.1,28.7,00.0,39.4,32.1,34.8,0000.0,0011.37,0005.79,0005.03
2022-07-16 13:22:00,,0830.3,5.00,0.00,31.1,28.7,00.0,39.4,32.2,34.7,0000.0,0010.80,0005.76,0005.03
2022-07-16 13:23:00,,0830.3,5.00,0.00,31.1,28.8,00.0,39.5,32.2,34.6,0000.0,0010.65,0005.75,0005.04
2022-07-16 13:24:00,,0830.3,5.00,0.00,31.1,28.9,00.0,39.5,32.2,34.5,0000.0,0010.69,0005.78,0005.06
2022-07-16 13:25:00,,0830.3,5.00,0.00,31.1,28.9,00.0,39.5,32.2,34.4,0000.0,0010.67,0005.80,0005.09
2022-07-16 13:26:00,,0830.2,5.00,0.00,31.1,29.0,00.0,39.5,32.3,34.9,0000.0,0010.38,0005.83,0005.12
2022-07-16 13:27:00,,0830.2,5.00,0.00,31.1,29.1,00.0,39.5,32.3,34.9,0000.0,0009.73,0005.89,0005.15
2022-07-16 13:28:00,,0830.2,5.00,0.00,31.1,29.1,00.0,39.6,32.4,35.4,0000.0,0009.90,0005.99,0005.21
2022-07-16 13:29:00,,0830.2,5.01,0.00,31.3,29.2,00.0,39.6,32.5,35.2,0000.0,0010.23,0006.07,0005.27
2022-07-16 13:30:00,,0830.3,5.00,0.00,31.6,29.1,00.0,39.6,32.7,34.2,0000.0,0010.77,0006.11,0005.32
2022-07-16 13:31:00,,0830.2,5.00,0.00,31.8,28.6,00.0,39.5,32.7,33.3,0000.0,0010.80,0006.15,0005.35
2022-07-16 13:32:00,,0830.3,5.00,0.00,31.9,27.9,00.0,39.5,32.5,33.0,0000.0,0011.10,0006.17,0005.35
2022-07-16 13:33:00,,0830.2,5.00,0.00,31.9,27.6,00.0,39.5,32.4,33.0,0000.0,0011.46,0006.19,0005.35
2022-07-16 13:34:00,,0830.2,5.01,0.00,31.7,27.6,00.0,39.6,32.2,33.3,0000.0,0012.09,0006.17,0005.34
2022-07-16 13:35:00,,0830.3,4.99,0.00,31.6,27.7,00.0,39.6,32.1,33.2,0000.0,0012.31,0006.12,0005.30
2022-07-16 13:36:00,,0830.2,5.01,0.00,31.5,27.8,00.0,39.6,32.1,33.5,0000.0,0012.15,0006.07,0005.27
2022-07-16 13:37:00,,0830.3,4.99,0.00,31.5,28.0,00.0,39.7,32.1,34.1,0000.0,0012.22,0006.07,0005.25
2022-07-16 13:38:00,,0830.2,5.01,0.00,31.4,28.1,00.0,39.7,32.1,34.0,0000.0,0012.37,0006.06,0005.23
2022-07-16 13:39:00,,0830.2,5.00,0.00,31.4,28.3,00.0,39.7,32.1,33.4,0000.0,0012.65,0006.00,0005.19
2022-07-16 13:40:00,,0830.2,5.00,0.00,31.3,28.4,00.0,39.7,32.1,32.6,0000.0,0012.48,0005.85,0005.13
2022-07-16 13:41:00,,0830.2,5.00,0.00,31.3,28.5,00.0,39.7,32.1,32.7,0000.0,0011.72,0005.73,0005.07
2022-07-16 13:42:00,,0830.3,5.00,0.00,31.2,28.6,00.0,39.7,32.2,31.7,0000.0,0012.08,0005.61,0004.99
2022-07-16 13:43:00,,0830.2,5.00,0.00,31.2,28.7,00.0,39.7,32.2,31.2,0000.0,0011.70,0005.46,0004.90
2022-07-16 13:44:00,,0830.2,4.99,0.00,31.2,28.8,00.0,39.7,32.3,31.6,0000.0,0011.25,0005.37,0004.83
2022-07-16 13:45:00,,0830.2,5.00,0.00,31.2,28.9,00.0,39.7,32.3,30.6,0000.0,0010.68,0005.29,0004.76
2022-07-16 13:46:00,,0830.2,5.00,0.00,31.2,29.0,00.0,39.7,32.3,30.3,0000.0,0010.71,0005.19,0004.69
2022-07-16 13:47:00,,0830.1,5.00,0.00,31.2,29.0,00.0,39.7,32.3,31.0,0000.0,0010.75,0005.16,0004.62
2022-07-16 13:48:00,,0830.2,5.00,0.00,31.2,29.1,00.0,39.7,32.4,29.8,0000.0,0010.55,0005.02,0004.53
2022-07-16 13:49:00,,0830.1,5.01,0.00,31.2,29.0,00.0,39.7,32.4,30.6,0000.0,0010.29,0004.90,0004.42
2022-07-16 13:50:00,,0830.1,4.99,0.00,31.2,28.3,00.0,39.6,32.3,31.1,0000.0,0009.79,0004.76,0004.32
2022-07-16 13:51:00,,0830.1,5.02,0.00,31.1,27.8,00.0,39.5,32.3,30.5,0000.0,0009.12,0004.69,0004.25
2022-07-16 13:52:00,,0830.1,4.99,0.00,31.0,27.6,00.0,39.5,32.1,30.0,0000.0,0009.23,0004.64,0004.16
2022-07-16 13:53:00,,0830.2,5.01,0.00,30.9,27.7,00.0,39.5,32.0,29.6,0000.0,0008.67,0004.55,0004.08
2022-07-16 13:54:00,,0830.1,5.00,0.00,30.8,27.8,00.0,39.5,32.0,29.5,0000.0,0008.34,0004.47,0004.01
2022-07-16 13:55:00,,0830.1,4.99,0.00,30.7,27.9,00.0,39.4,32.0,28.8,0000.0,0008.13,0004.35,0003.91
2022-07-16 13:56:00,,0830.1,5.01,0.00,30.7,28.1,00.0,39.4,32.0,28.6,0000.0,0007.72,0004.24,0003.82
2022-07-16 13:57:00,,0830.2,5.00,0.00,30.7,28.2,00.0,39.4,32.0,28.3,0000.0,0007.02,0004.18,0003.74
2022-07-16 13:58:00,,0830.2,5.00,0.00,30.7,28.4,00.0,39.4,32.0,30.6,0000.0,0006.74,0004.07,0003.67
2022-07-16 13:59:00,,0830.1,5.00,0.00,30.7,28.5,00.0,39.4,32.1,35.4,0000.0,0006.99,0004.12,0003.72
